Weather History for Kingston, Jamaica

Change the Weather History Date:

Saturday, October 6, 2012

  Actual Average Record
Temperature  
Mean Temperature 82 °F -  
Max Temperature 88 °F 87 °F 95 °F (2006)
Min Temperature 77 °F 78 °F 77 °F (2005)
Cooling Degree Days 18    
Growing Degree Days 32 (Base 50)    
Moisture  
Dew Point 76 °F    
Average Humidity 81    
Maximum Humidity 94    
Minimum Humidity 60    
Precipitation  
Precipitation 0.04 in - - ()
Sea Level Pressure  
Sea Level Pressure 29.82 in    
Wind  
Wind Speed 4 mph ()    
Max Wind Speed 14 mph    
Max Gust Speed -    
Visibility 9.6 miles    
Events Rain , Thunderstorm    
Averages and records for this station are not official NWS values.
T = Trace of Precipitation, MM = Missing Value Source: Averaged Metar Reports

Daily Weather History Graph

Daily Weather History Graph

Search for Another Location

Airport:

Trip Planner

Search our weather history database for the weather conditions in past years. The results will help you decide how hot, cold, wet, or windy it might be!

Date:

Astronomy

Oct. 06, 2012 Rise Set
Actual Time 5:58 AM EST 5:51 PM EST
Civil Twilight 5:36 AM EST 6:13 PM EST
Nautical Twilight 5:11 AM EST 6:38 PM EST
Astronomical Twilight 4:46 AM EST 7:03 PM EST
Moon 10:41 PM EST (10/6) 11:14 AM EST (10/6)
Length of Visible Light 12h 36m
Length of Day
11h 52m
Waning Gibbous, 65% of the Moon is Illuminated
Oct 6
Waning Gibbous
Oct 8
Last Quarter
Oct 15
New
Oct 21
First Quarter
Oct 29
Full

Hourly Weather History & Observations

Time (EST) Temp. Heat Index Dew Point Humidity Pressure Visibility Wind Dir Wind Speed Gust Speed Precip Events Conditions
12:00 AM 78.8 °F - 77.0 °F 94% 29.86 in - WNW 4.6 mph - N/A   Partly Cloudy
1:00 AM 79 °F - 77 °F 92% 29.86 in 11 mi NW 3.5 mph - -   Haze
1:00 AM 78.8 °F - 77.0 °F 94% 29.86 in - NW 3.5 mph - N/A   Partly Cloudy
2:00 AM 78.8 °F - 75.2 °F 89% 29.83 in - West 2.3 mph - N/A Thunderstorm Partly Cloudy
3:00 AM 78.8 °F - 75.2 °F 89% 29.83 in 6.2 mi NW 1.2 mph - N/A Thunderstorm Partly Cloudy
4:00 AM 78.8 °F - 77.0 °F 94% 29.83 in - NW 4.6 mph - N/A   Scattered Clouds
5:00 AM 78.8 °F - 75.2 °F 89% 29.80 in - North 3.5 mph - N/A Thunderstorm Partly Cloudy
6:00 AM 78.8 °F - 75.2 °F 89% 29.80 in - North 8.1 mph - N/A   Partly Cloudy
7:00 AM 79 °F - 75 °F 85% 29.85 in 22 mi Calm Calm - -   Scattered Clouds
7:00 AM 78.8 °F - 75.2 °F 89% 29.83 in - SE 2.3 mph - N/A   Scattered Clouds
8:00 AM 84.2 °F 92.3 °F 75.2 °F 74% 29.83 in - East 1.2 mph - N/A   Partly Cloudy
9:00 AM 86.0 °F 95.1 °F 75.2 °F 70% 29.86 in 6.2 mi SSW 13.8 mph - N/A   Partly Cloudy
10:00 AM 87 °F - 75 °F 60% 29.87 in 14 mi Calm Calm - -   Haze
10:00 AM 86.0 °F 95.1 °F 75.2 °F 70% 29.86 in 6.2 mi South 4.6 mph - N/A   Partly Cloudy
11:00 AM 86.0 °F 95.1 °F 75.2 °F 70% 29.83 in - SSW 5.8 mph - N/A   Partly Cloudy
12:00 PM 89.6 °F 102.2 °F 77.0 °F 66% 29.80 in - South 6.9 mph - N/A   Partly Cloudy
1:00 PM 88 °F - 77 °F 64% 29.81 in 12 mi Calm Calm - -   Partly Cloudy
1:00 PM 87.8 °F 99.7 °F 77.0 °F 70% 29.80 in - South 6.9 mph - N/A   Partly Cloudy
1:40 PM 87.8 °F 99.7 °F 77.0 °F 70% 29.80 in - South 4.6 mph - N/A Thunderstorm Thunderstorm
2:00 PM 86.0 °F 96.9 °F 77.0 °F 74% 29.77 in - SSW 3.5 mph - N/A Thunderstorm Thunderstorm
3:00 PM 84.2 °F 96.1 °F 78.8 °F 84% 29.77 in - North 3.5 mph - N/A   Mostly Cloudy
3:14 PM 84.2 °F 96.1 °F 78.8 °F 84% 29.77 in - NNE 4.6 mph - N/A Thunderstorm Thunderstorm
4:00 PM 83 °F - 77 °F 79% 29.78 in 9 mi Calm Calm - - Thunderstorm Thunderstorm
4:00 PM 82.4 °F 90.9 °F 77.0 °F 84% 29.77 in - SSE 9.2 mph - N/A Thunderstorm Thunderstorm
5:00 PM 82.4 °F 89.5 °F 75.2 °F 79% 29.77 in - SE 2.3 mph - N/A Rain Light Rain Showers
6:00 PM 80.6 °F 86.2 °F 75.2 °F 84% 29.80 in - NW 3.5 mph - N/A   Scattered Clouds
7:00 PM 82 °F - 78 °F 83% 29.82 in 12 mi WNW 8.1 mph - -   Haze
7:00 PM 82.4 °F 90.9 °F 77.0 °F 84% 29.80 in - WNW 8.1 mph - N/A   Partly Cloudy
8:00 PM 80.6 °F 86.2 °F 75.2 °F 84% 29.83 in - WNW 6.9 mph - N/A   Partly Cloudy
9:00 PM 80.6 °F 86.2 °F 75.2 °F 84% 29.83 in - West 3.5 mph - N/A   Partly Cloudy
10:00 PM 78.8 °F - 75.2 °F 89% 29.86 in - WNW 5.8 mph - N/A   Partly Cloudy
11:00 PM 80.6 °F 86.2 °F 75.2 °F 84% 29.86 in - NW 1.2 mph - N/A   Partly Cloudy